Weather in Cardiff

United Kingdom     51°29′03″N   3°10′36″W
temp.,
°C
wind,
m/s
gust,
m/s
humid.,
%
clouds,
%
prec.,
mm/h
press.,
hPa
HPBL,
m
20 june, sun
sun2001:00+12ene4895100 5.0 1009308
04:00+12ene589599 0.1 1008380
07:00+11ene5896100 0.1 1008437
10:00+13ene579397 0.1 1009499
13:00+13ne579198 0.2 1009527
16:00+14ne578597 0.0 1009644
19:00+13ne61087100 0.0 1009644
22:00+12ne61185100 0.0 1010563
21 june, mon
mon2101:00+11ne71285100 0.1 1010512
04:00+11ne81385100 0.1 1010545
07:00+10ne91587100 0.8 1012587
10:00+10ne81587100 0.8 1012581
13:00+10ne71392100 3.6 1014646
16:00+11ne51294100 2.6 1015661
19:00+11ne61392100 3.3 1016746
22:00+10ne7138996 0.4 1018704
22 june, tue
tue2201:00+10ne6138792 0.6 1019741
04:00+11nne71387100 0.2 1019655
07:00+10nne7137995 0.2 1021623
10:00+13ne79685 0.0 1022953
13:00+16ne676044 0.0 10221459
16:00+17ne466391 0.0 10221484
19:00+16nne137187 0.1 1022226
22:00+13n3581100 0.1 102386
23 june, wed
wed2301:00+10nne2288100 0.1 102436
04:00+9n2289100 0.0 102422
07:00+11n118378 0.0 102495
10:00+13e0178100 0.0 1024321
13:00+12sw1286100 0.2 1024235
16:00+14wnw327799 0.1 1023646
19:00+15w3280100 0.1 1023447
22:00+11w229390 0.0 102337
24 june, thu
thu2401:00+11wnw229361 0.0 102328
04:00+11w2293100 0.0 102226
07:00+13w1289100 0.0 1023125
10:00+15w337799 0.0 1022504
13:00+18sw437388 0.0 1022998
16:00+17w447870 0.0 1022595
19:00+16w558779 0.0 1022369
22:00+14w379496 0.0 1023240